Change the Weather History Date:

Saturday, December 29, 2012

  Actual Average Record
Temperature  
Mean Temperature 20 °F 20 °F  
Max Temperature 30 °F 30 °F 57 °F (2002)
Min Temperature 10 °F 10 °F -10 °F (2014)
Degree Days  
Heating Degree Days 45 45  
Month to date heating degree days 1209 1273  
Since 1 July heating degree days 2909 3171  
Cooling Degree Days 0 0  
Month to date cooling degree days 0 0  
Year to date cooling degree days 853 513  
Moisture  
Dew Point 11 °F    
Average Humidity 75    
Maximum Humidity 92    
Minimum Humidity 57    
Precipitation  
Precipitation 0.00 in 0.01 in 0.18 in (2005)
Month to date precipitation 0.29 0.26  
Year to date precipitation 8.57 14.49  
Sea Level Pressure  
Sea Level Pressure 30.05 in    
Wind  
Wind Speed 9 mph (West)    
Max Wind Speed 16 mph    
Max Gust Speed 21 mph    
T = Trace of Precipitation, MM = Missing Value Source: NWS Daily Summary

Daily Weather History Graph

Daily Weather History Graph

Search for Another Location

Airport or City:

Trip Planner

Search our weather history database for the weather conditions in past years. The results will help you decide how hot, cold, wet, or windy it might be!

Date:

Astronomy

Dec. 29, 2012 Rise Set
Actual Time 7:34 AM MST 4:18 PM MST
Civil Twilight 7:00 AM MST 4:53 PM MST
Nautical Twilight 6:22 AM MST 5:30 PM MST
Astronomical Twilight 5:46 AM MST 6:06 PM MST
Moon 5:59 PM MST (12/29) 8:04 AM MST (12/29)
Length of Visible Light 9h 52m
Length of Day
8h 44m
Full, 98% of the Moon is Illuminated
Dec 29
Full
Jan 4
Last Quarter
Jan 11
New
Jan 18
First Quarter
Jan 26
Full

Hourly Weather History & Observations

Time (MST) Temp. Windchill Dew Point Humidity Pressure Visibility Wind Dir Wind Speed Gust Speed Precip Events Conditions
12:56 AM 12.9 °F -1.6 °F 9.0 °F 84% 30.04 in - West 12.7 mph - N/A   Unknown
1:56 AM 14.0 °F 1.2 °F 9.0 °F 80% 30.04 in - West 10.4 mph - N/A   Unknown
2:56 AM 12.9 °F -2.8 °F 9.0 °F 84% 30.06 in - West 15.0 mph - N/A   Unknown
3:56 AM 10.9 °F -4.1 °F 8.1 °F 88% 30.07 in - West 12.7 mph - N/A   Unknown
4:56 AM 14.0 °F -0.8 °F 9.0 °F 80% 30.06 in - West 13.8 mph - N/A   Unknown
5:56 AM 14.0 °F 0.5 °F 9.0 °F 80% 30.07 in - West 11.5 mph - N/A   Unknown
6:56 AM 15.1 °F 0.5 °F 9.0 °F 77% 30.09 in - West 13.8 mph - N/A   Unknown
7:56 AM 12.9 °F -1.6 °F 7.0 °F 77% 30.12 in - West 12.7 mph - N/A   Unknown
8:56 AM 15.1 °F -0.1 °F 9.0 °F 77% 30.12 in - West 15.0 mph - N/A   Unknown
9:56 AM 19.9 °F 7.3 °F 12.9 °F 74% 30.12 in - West 12.7 mph - N/A   Unknown
10:56 AM 26.1 °F 15.0 °F 16.0 °F 66% 30.10 in - West 12.7 mph - N/A   Unknown
11:56 AM 28.9 °F 19.2 °F 17.1 °F 61% 30.08 in - West 11.5 mph - N/A   Unknown
12:56 PM 28.9 °F 18.6 °F 17.1 °F 61% 30.06 in - West 12.7 mph - N/A   Unknown
1:56 PM 30.0 °F 21.7 °F 17.1 °F 59% 30.04 in - West 9.2 mph - N/A   Unknown
2:56 PM 27.0 °F 18.0 °F 15.1 °F 61% 30.06 in - West 9.2 mph - N/A   Unknown
3:56 PM 26.1 °F 19.4 °F 14.0 °F 60% 30.06 in - West 5.8 mph - N/A   Unknown
4:56 PM 24.1 °F 17.0 °F 12.9 °F 62% 30.04 in - West 5.8 mph - N/A   Unknown
5:56 PM 23.0 °F - 12.9 °F 65% 30.03 in - Calm Calm - N/A   Unknown
6:56 PM 24.1 °F 19.7 °F 12.9 °F 62% 30.02 in - West 3.5 mph - N/A   Unknown
7:56 PM 18.0 °F 12.7 °F 9.0 °F 68% 30.04 in - WSW 3.5 mph - N/A   Unknown
8:56 PM 21.9 °F 17.2 °F 10.9 °F 63% 30.02 in - WNW 3.5 mph - N/A   Unknown
9:56 PM 21.0 °F - 10.9 °F 65% 30.00 in - Calm Calm - N/A   Unknown
10:56 PM 19.0 °F - 10.0 °F 68% 29.99 in - Calm Calm - N/A   Unknown
11:56 PM 14.0 °F - 9.0 °F 80% 29.96 in - Calm Calm - N/A   Unknown